Hourly Weather Liverpool

Today, 1 October, Thursday

Time Temperature Precipitation Wind Pressure Humidity
00:00 +10°C° 0 mm 5 mps 747 mmHg 91%
01:00 +11°C° 0.3 mm 4 mps 747 mmHg 90%
02:00 +11°C° 0.3 mm 4 mps 747 mmHg 89%
03:00 +10°C° 0.3 mm 4 mps 747 mmHg 88%
04:00 +10°C° 0 mm 4 mps 747 mmHg 86%
05:00 +10°C° 0 mm 4 mps 747 mmHg 85%
06:00 +8°C° 0 mm 4 mps 748 mmHg 83%
07:00 +10°C° 0 mm 4 mps 747 mmHg 80%
08:00 +10°C° 0 mm 4 mps 747 mmHg 77%
09:00 +11°C° 0 mm 3 mps 747 mmHg 74%
10:00 +11°C° 0.1 mm 3 mps 747 mmHg 69%
11:00 +12°C° 0.1 mm 3 mps 747 mmHg 64%
12:00 +13°C° 0.1 mm 3 mps 747 mmHg 59%
13:00 +13°C° 0.1 mm 3 mps 746 mmHg 60%
14:00 +14°C° 0.1 mm 2 mps 746 mmHg 61%
15:00 +13°C° 0.1 mm 2 mps 745 mmHg 62%
16:00 +12°C° 0 mm 2 mps 745 mmHg 66%
17:00 +11°C° 0 mm 1 mps 745 mmHg 70%
18:00 +10°C° 0 mm 1 mps 745 mmHg 74%
19:00 +9°C° 0 mm 2 mps 745 mmHg 76%
20:00 +8°C° 0 mm 3 mps 744 mmHg 78%
21:00 +8°C° 0 mm 3 mps 744 mmHg 80%
22:00 +8°C° 0 mm 3 mps 744 mmHg 81%
23:00 +8°C° 0 mm 3 mps 744 mmHg 81%

Tomorrow, 2 October, Friday

Time Temperature Precipitation Wind Pressure Humidity
00:00 +7°C° 0 mm 3 mps 744 mmHg 82%
01:00 +7°C° 0 mm 3 mps 744 mmHg 82%
02:00 +7°C° 0 mm 3 mps 744 mmHg 83%
03:00 +6°C° 0 mm 4 mps 744 mmHg 83%
04:00 +6°C° 0 mm 4 mps 745 mmHg 83%
05:00 +6°C° 0 mm 4 mps 745 mmHg 83%
06:00 +6°C° 0 mm 4 mps 746 mmHg 83%
07:00 +7°C° 0 mm 4 mps 746 mmHg 79%
08:00 +8°C° 0 mm 4 mps 746 mmHg 76%
09:00 +10°C° 0 mm 4 mps 747 mmHg 73%
10:00 +10°C° 0 mm 5 mps 747 mmHg 69%
11:00 +13°C° 0 mm 5 mps 747 mmHg 66%
12:00 +14°C° 0 mm 5 mps 747 mmHg 62%
13:00 +14°C° 0 mm 5 mps 747 mmHg 62%
14:00 +14°C° 0 mm 5 mps 747 mmHg 62%
15:00 +14°C° 0 mm 5 mps 747 mmHg 62%
16:00 +14°C° 0 mm 5 mps 747 mmHg 65%
17:00 +13°C° 0 mm 5 mps 748 mmHg 69%
18:00 +12°C° 0 mm 5 mps 748 mmHg 73%
19:00 +12°C° 0 mm 5 mps 748 mmHg 74%
20:00 +10°C° 0 mm 5 mps 748 mmHg 76%
21:00 +10°C° 0 mm 5 mps 748 mmHg 77%
22:00 +10°C° 0 mm 4 mps 748 mmHg 80%
23:00 +10°C° 0 mm 4 mps 748 mmHg 82%

Day after tomorrow, 3 October, Saturday

Time Temperature Precipitation Wind Pressure Humidity
00:00 +10°C° 0 mm 4 mps 748 mmHg 85%
01:00 +10°C° 0 mm 4 mps 747 mmHg 85%
02:00 +10°C° 0 mm 4 mps 747 mmHg 85%
03:00 +9°C° 0 mm 5 mps 747 mmHg 85%
04:00 +10°C° 0 mm 4 mps 746 mmHg 85%
05:00 +10°C° 0 mm 4 mps 746 mmHg 86%
06:00 +10°C° 0 mm 4 mps 746 mmHg 86%
07:00 +10°C° 0.4 mm 5 mps 745 mmHg 88%
08:00 +10°C° 0.4 mm 5 mps 744 mmHg 90%
09:00 +10°C° 0.4 mm 5 mps 744 mmHg 92%
10:00 +10°C° 1.1 mm 5 mps 743 mmHg 92%
11:00 +10°C° 1.1 mm 5 mps 743 mmHg 93%
12:00 +10°C° 1.1 mm 6 mps 742 mmHg 93%
13:00 +10°C° 2.4 mm 6 mps 741 mmHg 93%
14:00 +10°C° 2.4 mm 7 mps 740 mmHg 94%
15:00 +10°C° 2.4 mm 7 mps 740 mmHg 95%
16:00 +10°C° 2.2 mm 7 mps 739 mmHg 95%
17:00 +10°C° 2.2 mm 8 mps 738 mmHg 95%
18:00 +10°C° 2.2 mm 8 mps 737 mmHg 95%
19:00 +10°C° 3.1 mm 8 mps 737 mmHg 95%
20:00 +10°C° 3.1 mm 8 mps 736 mmHg 95%
21:00 +10°C° 3.1 mm 9 mps 735 mmHg 95%
22:00 +10°C° 3.4 mm 9 mps 734 mmHg 95%
23:00 +10°C° 3.4 mm 9 mps 733 mmHg 95%

4 October, Sunday

Time Temperature Precipitation Wind Pressure Humidity
00:00 +10°C° 3.4 mm 9 mps 732 mmHg 94%
01:00 +11°C° 2.7 mm 7 mps 732 mmHg 94%
02:00 +11°C° 2.7 mm 6 mps 731 mmHg 93%
03:00 +12°C° 2.7 mm 4 mps 731 mmHg 93%
04:00 +11°C° 0.2 mm 4 mps 731 mmHg 92%
05:00 +11°C° 0.2 mm 4 mps 731 mmHg 90%
06:00 +11°C° 0.2 mm 4 mps 731 mmHg 89%
07:00 +11°C° 0 mm 4 mps 732 mmHg 86%
08:00 +11°C° 0 mm 3 mps 732 mmHg 84%
09:00 +12°C° 0 mm 3 mps 732 mmHg 81%
10:00 +13°C° 0.1 mm 3 mps 732 mmHg 77%
11:00 +14°C° 0.1 mm 3 mps 733 mmHg 73%
12:00 +16°C° 0.1 mm 3 mps 733 mmHg 69%
13:00 +14°C° 0.2 mm 4 mps 733 mmHg 71%
14:00 +14°C° 0.2 mm 4 mps 733 mmHg 74%
15:00 +14°C° 0.2 mm 5 mps 733 mmHg 77%
16:00 +13°C° 0 mm 4 mps 734 mmHg 78%
17:00 +12°C° 0 mm 4 mps 734 mmHg 80%
18:00 +12°C° 0 mm 4 mps 734 mmHg 82%
19:00 +11°C° 0.2 mm 3 mps 734 mmHg 83%
20:00 +12°C° 0.2 mm 2 mps 735 mmHg 85%
21:00 +12°C° 0.2 mm 2 mps 735 mmHg 87%
22:00 +12°C° 0.7 mm 2 mps 735 mmHg 88%
23:00 +11°C° 0.7 mm 3 mps 735 mmHg 89%

5 October, Monday

Time Temperature Precipitation Wind Pressure Humidity
00:00 +11°C° 0.7 mm 3 mps 735 mmHg 90%
01:00 +11°C° 1.4 mm 3 mps 736 mmHg 91%
02:00 +11°C° 1.4 mm 3 mps 736 mmHg 92%
03:00 +11°C° 1.4 mm 4 mps 736 mmHg 93%
04:00 +11°C° 0.3 mm 3 mps 737 mmHg 92%
05:00 +11°C° 0.3 mm 3 mps 737 mmHg 91%
06:00 +10°C° 0.3 mm 3 mps 738 mmHg 91%
07:00 +11°C° 0 mm 3 mps 739 mmHg 89%
08:00 +12°C° 0 mm 4 mps 739 mmHg 87%
09:00 +12°C° 0 mm 4 mps 740 mmHg 84%
10:00 +13°C° 0.3 mm 5 mps 740 mmHg 82%
11:00 +14°C° 0.3 mm 6 mps 741 mmHg 79%
12:00 +14°C° 0.3 mm 6 mps 741 mmHg 76%
13:00 +14°C° 0.5 mm 7 mps 742 mmHg 78%
14:00 +13°C° 0.5 mm 8 mps 742 mmHg 79%
15:00 +13°C° 0.5 mm 9 mps 742 mmHg 81%
16:00 +12°C° 0.3 mm 9 mps 743 mmHg 82%
17:00 +12°C° 0.3 mm 9 mps 743 mmHg 83%
18:00 +12°C° 0.3 mm 9 mps 744 mmHg 84%
19:00 +11°C° 0.3 mm 9 mps 744 mmHg 84%
20:00 +11°C° 0.3 mm 8 mps 745 mmHg 83%
21:00 +11°C° 0.3 mm 8 mps 745 mmHg 83%
22:00 +11°C° 0.1 mm 8 mps 746 mmHg 82%
23:00 +11°C° 0.1 mm 8 mps 746 mmHg 81%

6 October, Tuesday

Time Temperature Precipitation Wind Pressure Humidity
00:00 +11°C° 0.1 mm 8 mps 746 mmHg 80%
01:00 +11°C° 0.1 mm 8 mps 747 mmHg 81%
02:00 +11°C° 0.1 mm 7 mps 747 mmHg 82%
03:00 +10°C° 0.1 mm 7 mps 747 mmHg 83%
04:00 +10°C° 0.3 mm 7 mps 747 mmHg 84%
05:00 +10°C° 0.3 mm 7 mps 748 mmHg 85%
06:00 +10°C° 0.3 mm 7 mps 748 mmHg 86%
07:00 +10°C° 0.1 mm 7 mps 748 mmHg 85%
08:00 +10°C° 0.1 mm 7 mps 749 mmHg 83%
09:00 +10°C° 0.1 mm 7 mps 749 mmHg 82%
10:00 +10°C° 0 mm 7 mps 749 mmHg 78%
11:00 +11°C° 0 mm 6 mps 750 mmHg 75%
12:00 +11°C° 0 mm 6 mps 750 mmHg 71%
13:00 +11°C° 0 mm 6 mps 750 mmHg 71%
14:00 +11°C° 0 mm 6 mps 750 mmHg 70%
15:00 +12°C° 0 mm 5 mps 750 mmHg 70%
16:00 +10°C° 0.1 mm 5 mps 751 mmHg 72%
17:00 +10°C° 0.1 mm 5 mps 751 mmHg 74%
18:00 +9°C° 0.1 mm 5 mps 751 mmHg 76%
19:00 +10°C° 0 mm 4 mps 752 mmHg 78%
20:00 +8°C° 0 mm 4 mps 752 mmHg 81%
21:00 +9°C° 0 mm 3 mps 752 mmHg 83%
22:00 +9°C° 0.1 mm 3 mps 752 mmHg 84%
23:00 +9°C° 0.1 mm 3 mps 753 mmHg 85%
Show more